Radiation Dose at Monitoring Post of Fukushima Daini Nuclear Power Station
Date,Time,MP-1(microSv/h),MP-2(microSv/h),MP-3(microSv/h),MP-4(microSv/h),MP-5(microSv/h),MP-6(microSv/h),MP-7(microSv/h),Wind Direction,Wind Velocity(m/s),Rain
2021/07/02,00:00,0.159,0.148,0.231,0.227,0.230,0.126,0.081,north-northwest,0.7,No
2021/07/02,00:10,0.160,0.147,0.233,0.225,0.227,0.125,0.079,north,1.4,No
2021/07/02,00:20,0.159,0.148,0.234,0.227,0.230,0.127,0.080,north-northwest,1.9,No
2021/07/02,00:30,0.160,0.148,0.232,0.225,0.229,0.126,0.079,north-northwest,2.0,No
2021/07/02,00:40,0.160,0.147,0.234,0.225,0.230,0.125,0.079,north-northwest,1.6,No
2021/07/02,00:50,0.158,0.147,0.230,0.225,0.230,0.127,0.079,north-northwest,1.8,No
2021/07/02,01:00,0.160,0.146,0.232,0.223,0.227,0.125,0.079,north,1.6,No
2021/07/02,01:10,0.159,0.146,0.231,0.226,0.229,0.126,0.079,north-northwest,2.7,No
2021/07/02,01:20,0.158,0.148,0.231,0.224,0.227,0.126,0.079,north-northwest,2.1,No
2021/07/02,01:30,0.160,0.146,0.231,0.224,0.227,0.124,0.078,north-northwest,2.1,No
2021/07/02,01:40,0.159,0.147,0.229,0.225,0.228,0.125,0.079,north-northwest,2.0,No
2021/07/02,01:50,0.158,0.146,0.232,0.222,0.227,0.124,0.079,north-northwest,1.8,No
2021/07/02,02:00,0.159,0.146,0.231,0.226,0.228,0.125,0.078,north-northwest,1.7,No
2021/07/02,02:10,0.159,0.146,0.230,0.223,0.228,0.125,0.079,north-northwest,1.7,No
2021/07/02,02:20,0.159,0.145,0.232,0.225,0.226,0.124,0.079,north-northwest,1.4,No
2021/07/02,02:30,0.160,0.146,0.229,0.224,0.229,0.125,0.079,north-northwest,1.0,No
2021/07/02,02:40,0.158,0.145,0.232,0.223,0.226,0.125,0.078,north,0.6,No
2021/07/02,02:50,0.159,0.146,0.230,0.226,0.228,0.124,0.078,north,0.6,No
2021/07/02,03:00,0.160,0.146,0.230,0.224,0.228,0.126,0.078,north-northwest,2.1,No
2021/07/02,03:10,0.158,0.146,0.231,0.224,0.225,0.126,0.078,north-northwest,2.8,No
2021/07/02,03:20,0.159,0.147,0.230,0.225,0.229,0.125,0.078,north-northwest,2.2,No
2021/07/02,03:30,0.159,0.146,0.232,0.223,0.229,0.126,0.078,north-northwest,1.3,No
2021/07/02,03:40,0.159,0.148,0.230,0.224,0.226,0.125,0.078,north-northwest,1.8,No
2021/07/02,03:50,0.160,0.147,0.231,0.225,0.230,0.125,0.080,north-northwest,1.5,No
2021/07/02,04:00,0.158,0.147,0.232,0.224,0.227,0.125,0.079,west-northwest,0.9,No
2021/07/02,04:10,0.160,0.147,0.230,0.224,0.228,0.125,0.079,north,0.6,No
2021/07/02,04:20,0.160,0.145,0.231,0.224,0.228,0.125,0.078,north-northwest,0.8,No
2021/07/02,04:30,0.159,0.146,0.230,0.225,0.228,0.125,0.078,north-northwest,2.9,No
2021/07/02,04:40,0.159,0.146,0.232,0.225,0.228,0.124,0.079,north-northwest,2.9,No
2021/07/02,04:50,0.159,0.147,0.231,0.224,0.227,0.126,0.078,northwest,3.3,No
2021/07/02,05:00,0.159,0.147,0.230,0.225,0.227,0.125,0.079,northwest,2.5,No
2021/07/02,05:10,0.159,0.147,0.232,0.223,0.231,0.125,0.079,north-northwest,1.9,No
2021/07/02,05:20,0.158,0.147,0.230,0.226,0.227,0.125,0.078,-,CALM,No
2021/07/02,05:30,0.161,0.146,0.233,0.225,0.228,0.125,0.079,-,CALM,No
2021/07/02,05:40,0.159,0.146,0.231,0.224,0.230,0.126,0.079,north,1.1,No
2021/07/02,05:50,0.159,0.146,0.230,0.225,0.227,0.126,0.079,north,1.2,No
2021/07/02,06:00,0.160,0.147,0.232,0.224,0.229,0.125,0.080,north,0.6,No
2021/07/02,06:10,0.159,0.147,0.230,0.224,0.229,0.125,0.078,north-northwest,0.9,No
2021/07/02,06:20,0.159,0.146,0.231,0.225,0.226,0.125,0.079,north-northwest,1.2,No
2021/07/02,06:30,0.160,0.145,0.231,0.223,0.229,0.124,0.079,north,1.2,No
2021/07/02,06:40,0.158,0.147,0.229,0.224,0.229,0.126,0.078,north-northwest,1.2,No
2021/07/02,06:50,0.159,0.146,0.231,0.227,0.226,0.124,0.079,north-northwest,0.6,No
2021/07/02,07:00,0.159,0.146,0.232,0.223,0.230,0.124,0.078,-,CALM,No
2021/07/02,07:10,0.159,0.147,0.230,0.222,0.228,0.126,0.079,northeast,1.1,No
2021/07/02,07:20,0.159,0.146,0.230,0.224,0.226,0.125,0.078,north-northeast,1.3,No
2021/07/02,07:30,0.161,0.145,0.232,0.224,0.227,0.124,0.079,north,1.4,No
2021/07/02,07:40,0.158,0.147,0.229,0.223,0.229,0.125,0.078,north-northeast,2.1,No
2021/07/02,07:50,0.159,0.147,0.231,0.225,0.226,0.125,0.078,north-northeast,1.9,No
2021/07/02,08:00,0.160,0.146,0.232,0.224,0.226,0.125,0.078,northeast,2.7,No
2021/07/02,08:10,0.158,0.146,0.230,0.223,0.229,0.123,0.078,northeast,1.6,No
2021/07/02,08:20,0.159,0.146,0.231,0.226,0.227,0.124,0.078,northeast,1.9,No
2021/07/02,08:30,0.160,0.147,0.231,0.224,0.227,0.123,0.078,north-northeast,2.2,No
2021/07/02,08:40,0.159,0.147,0.230,0.223,0.230,0.124,0.078,north,1.6,No
2021/07/02,08:50,0.159,0.146,0.231,0.225,0.227,0.125,0.079,north-northeast,1.8,No
2021/07/02,09:00,0.160,0.146,0.233,0.224,0.226,0.124,0.078,northeast,1.3,No
2021/07/02,09:10,0.159,0.147,0.230,0.223,0.230,0.124,0.077,northeast,1.0,No
2021/07/02,09:20,0.160,0.146,0.232,0.226,0.228,0.125,0.079,northeast,1.5,No
2021/07/02,09:30,0.159,0.147,0.232,0.224,0.226,0.125,0.079,northeast,1.1,No
2021/07/02,09:40,0.157,0.147,0.230,0.223,0.229,0.124,0.078,northeast,1.4,No
2021/07/02,09:50,0.159,0.145,0.233,0.225,0.228,0.125,0.079,northeast,1.8,No
2021/07/02,10:00,0.159,0.147,0.232,0.225,0.226,0.124,0.079,east-northeast,0.9,No
2021/07/02,10:10,0.158,0.146,0.229,0.223,0.229,0.124,0.078,east-northeast,1.0,No
2021/07/02,10:20,0.159,0.146,0.232,0.225,0.228,0.125,0.079,east,1.1,No
2021/07/02,10:30,0.160,0.147,0.230,0.224,0.226,0.125,0.078,east,1.6,No
2021/07/02,10:40,0.159,0.147,0.230,0.224,0.228,0.124,0.078,southeast,1.0,No
2021/07/02,10:50,0.160,0.146,0.232,0.224,0.229,0.125,0.079,southeast,1.2,No
2021/07/02,11:00,0.161,0.147,0.232,0.225,0.227,0.124,0.078,east-southeast,1.3,No
2021/07/02,11:10,0.158,0.146,0.231,0.223,0.228,0.124,0.079,east,1.5,No
2021/07/02,11:20,0.159,0.147,0.231,0.225,0.229,0.126,0.079,east-southeast,1.4,No
2021/07/02,11:30,0.160,0.147,0.232,0.224,0.227,0.125,0.078,southeast,1.0,No
2021/07/02,11:40,0.157,0.147,0.231,0.224,0.229,0.125,0.079,east-southeast,1.1,No
2021/07/02,11:50,0.160,0.148,0.233,0.227,0.230,0.126,0.079,east-southeast,1.4,No
2021/07/02,12:00,0.160,0.147,0.233,0.225,0.227,0.125,0.079,east,1.1,No
2021/07/02,12:10,0.159,0.146,0.231,0.224,0.229,0.125,0.079,east,1.2,No
2021/07/02,12:20,0.160,0.148,0.233,0.226,0.229,0.125,0.079,-,CALM,No
2021/07/02,12:30,0.159,0.147,0.231,0.224,0.226,0.125,0.078,south-southeast,0.8,No
2021/07/02,12:40,0.158,0.147,0.231,0.224,0.228,0.126,0.079,southeast,0.7,No
2021/07/02,12:50,0.161,0.146,0.233,0.225,0.229,0.126,0.079,southeast,0.7,No
2021/07/02,13:00,0.159,0.146,0.232,0.224,0.226,0.124,0.078,east-southeast,1.3,No
2021/07/02,13:10,0.158,0.148,0.230,0.225,0.230,0.125,0.079,southeast,0.8,No
2021/07/02,13:20,0.160,0.146,0.233,0.226,0.228,0.124,0.078,southeast,1.1,No
2021/07/02,13:30,0.160,0.147,0.231,0.222,0.226,0.123,0.078,southeast,0.9,No
2021/07/02,13:40,0.159,0.147,0.231,0.224,0.228,0.125,0.078,southeast,0.8,No
2021/07/02,13:50,0.160,0.146,0.233,0.226,0.230,0.125,0.078,southeast,0.7,No
2021/07/02,14:00,0.158,0.146,0.232,0.225,0.227,0.125,0.078,-,CALM,No
2021/07/02,14:10,0.158,0.147,0.230,0.224,0.226,0.125,0.078,-,CALM,Yes
2021/07/02,14:20,0.160,0.148,0.232,0.225,0.229,0.125,0.079,southeast,0.6,No
2021/07/02,14:30,0.160,0.146,0.231,0.225,0.228,0.125,0.079,-,CALM,Yes
2021/07/02,14:40,0.159,0.148,0.232,0.224,0.227,0.126,0.078,-,CALM,No
2021/07/02,14:50,0.159,0.148,0.233,0.226,0.230,0.126,0.079,northeast,0.7,No
2021/07/02,15:00,0.161,0.146,0.232,0.225,0.228,0.125,0.078,northeast,0.7,No
2021/07/02,15:10,0.159,0.148,0.232,0.223,0.227,0.125,0.078,northeast,0.9,No
2021/07/02,15:20,0.159,0.147,0.234,0.226,0.229,0.126,0.079,northeast,0.8,Yes
2021/07/02,15:30,0.160,0.147,0.231,0.226,0.230,0.124,0.079,north-northeast,1.7,Yes
2021/07/02,15:40,0.160,0.148,0.231,0.223,0.228,0.126,0.079,northeast,2.2,No
2021/07/02,15:50,0.159,0.146,0.234,0.226,0.229,0.125,0.079,northeast,2.6,No
2021/07/02,16:00,0.161,0.148,0.231,0.226,0.229,0.125,0.079,northeast,2.0,Yes
2021/07/02,16:10,0.159,0.147,0.231,0.224,0.228,0.127,0.080,northeast,1.9,Yes
2021/07/02,16:20,0.160,0.147,0.233,0.226,0.229,0.127,0.079,north-northeast,2.4,Yes
2021/07/02,16:30,0.161,0.148,0.232,0.226,0.230,0.126,0.080,north-northeast,2.6,Yes
2021/07/02,16:40,0.160,0.147,0.234,0.225,0.227,0.127,0.080,north-northeast,3.3,Yes
2021/07/02,16:50,0.161,0.148,0.232,0.227,0.230,0.127,0.081,north-northeast,2.5,Yes
2021/07/02,17:00,0.161,0.148,0.232,0.224,0.229,0.127,0.079,north-northeast,2.4,No
2021/07/02,17:10,0.159,0.147,0.232,0.224,0.228,0.127,0.080,north-northeast,2.0,Yes
2021/07/02,17:20,0.161,0.147,0.230,0.225,0.230,0.125,0.079,north-northeast,2.4,Yes
2021/07/02,17:30,0.160,0.147,0.232,0.223,0.227,0.125,0.079,north-northeast,2.4,Yes
2021/07/02,17:40,0.159,0.147,0.232,0.226,0.228,0.127,0.079,north-northeast,2.5,Yes
2021/07/02,17:50,0.161,0.147,0.231,0.224,0.229,0.126,0.080,north-northeast,2.6,Yes
2021/07/02,18:00,0.159,0.147,0.231,0.224,0.227,0.126,0.080,north-northeast,2.5,Yes
2021/07/02,18:10,0.160,0.147,0.230,0.225,0.229,0.126,0.080,north-northeast,3.2,Yes
2021/07/02,18:20,0.159,0.147,0.232,0.222,0.229,0.124,0.080,north-northeast,2.9,Yes
2021/07/02,18:30,0.159,0.147,0.229,0.225,0.226,0.126,0.079,north,2.4,Yes
2021/07/02,18:40,0.160,0.147,0.232,0.224,0.229,0.127,0.080,north-northeast,3.4,Yes
2021/07/02,18:50,0.158,0.147,0.231,0.224,0.227,0.125,0.080,north,3.7,Yes
2021/07/02,19:00,0.160,0.146,0.231,0.224,0.227,0.126,0.080,north,4.0,Yes
2021/07/02,19:10,0.159,0.148,0.231,0.221,0.228,0.125,0.079,north,3.8,Yes
2021/07/02,19:20,0.158,0.146,0.229,0.223,0.227,0.125,0.079,north,4.4,Yes
2021/07/02,19:30,0.159,0.147,0.230,0.222,0.228,0.125,0.079,north-northwest,4.5,Yes
2021/07/02,19:40,0.159,0.147,0.229,0.223,0.226,0.124,0.079,north-northwest,4.0,Yes
2021/07/02,19:50,0.160,0.146,0.230,0.222,0.228,0.126,0.080,north,4.9,Yes
2021/07/02,20:00,0.159,0.147,0.229,0.222,0.228,0.125,0.079,north,4.3,Yes
2021/07/02,20:10,0.159,0.147,0.230,0.224,0.227,0.125,0.080,north,5.0,Yes
2021/07/02,20:20,0.160,0.147,0.229,0.222,0.228,0.125,0.079,north,6.6,Yes
2021/07/02,20:30,0.158,0.146,0.229,0.222,0.225,0.124,0.079,north,7.1,Yes
2021/07/02,20:40,0.159,0.147,0.231,0.223,0.229,0.126,0.079,north,6.4,Yes
2021/07/02,20:50,0.159,0.147,0.231,0.223,0.227,0.125,0.079,north,6.8,Yes
2021/07/02,21:00,0.160,0.147,0.230,0.223,0.228,0.124,0.080,north,6.3,Yes
2021/07/02,21:10,0.159,0.147,0.229,0.221,0.228,0.124,0.079,north-northwest,5.5,Yes
2021/07/02,21:20,0.158,0.146,0.231,0.223,0.226,0.124,0.078,north,5.1,Yes
2021/07/02,21:30,0.159,0.146,0.229,0.221,0.228,0.125,0.078,north-northwest,5.7,Yes
2021/07/02,21:40,0.159,0.145,0.230,0.223,0.225,0.125,0.079,north-northwest,6.0,Yes
2021/07/02,21:50,0.160,0.146,0.228,0.222,0.227,0.125,0.078,north-northwest,6.1,Yes
2021/07/02,22:00,0.157,0.146,0.229,0.222,0.226,0.125,0.078,north-northwest,6.5,Yes
2021/07/02,22:10,0.159,0.146,0.229,0.222,0.228,0.124,0.078,north-northwest,6.5,Yes
2021/07/02,22:20,0.158,0.146,0.228,0.221,0.228,0.125,0.078,north-northwest,6.8,Yes
2021/07/02,22:30,0.159,0.147,0.229,0.223,0.227,0.124,0.078,north-northwest,5.9,Yes
2021/07/02,22:40,0.158,0.146,0.229,0.221,0.227,0.123,0.079,north-northwest,6.9,Yes
2021/07/02,22:50,0.159,0.146,0.229,0.223,0.226,0.124,0.078,north-northwest,7.8,Yes
2021/07/02,23:00,0.158,0.146,0.228,0.221,0.228,0.123,0.078,north-northwest,7.1,No
2021/07/02,23:10,0.158,0.146,0.229,0.222,0.227,0.124,0.078,north-northwest,7.7,No
2021/07/02,23:20,0.159,0.146,0.228,0.221,0.227,0.124,0.078,north-northwest,8.3,No
2021/07/02,23:30,0.158,0.146,0.230,0.220,0.227,0.123,0.077,northwest,7.3,No
2021/07/02,23:40,0.159,0.145,0.227,0.222,0.226,0.124,0.078,north-northwest,7.3,Yes
2021/07/02,23:50,0.157,0.145,0.229,0.220,0.229,0.123,0.078,northwest,8.2,Yes
